Flag for U.S.A. Weather past 2 weeks in Avalon (Santa Catalina Island), California, U.S.A.

49 °F

Passing clouds.

Feels Like: 42 °F
Forecast: 54 / 60 °F
Wind: 20 mph from West

Location: Catalina Airport

Current Time: Nov 25, 2015 at 6:41:47 AM

Latest Report: Nov 25, 2015 at 5:51 AM

Visibility: 10 mi

Pressure: 29.87 "Hg

Humidity: 69%

Dew point: 39 °F

Location of Avalon (Santa Catalina Island)Location

Historic Weather in Avalon (Santa Catalina Island) — Graph


Avalon (Santa Catalina Island) temperature yesterday

Maximum temperature yesterday: 59 °F (at 12:51 AM)
Minimum temperature yesterday: 51 °F (at 6:51 AM)
Average temperature yesterday: 55 °F

Past Weeks' High & Low Weather Summary

High79 °F (Nov 20, 10:51 AM)100% (Nov 24, 7:57 AM)30.28 "Hg (Nov 24, 7:57 AM)
Low48 °F (Nov 16, 2:51 AM)7% (Nov 13, 2:51 AM)29.86 "Hg (Nov 20, 2:51 PM)
Average62 °F34%29.98 "Hg
* Reported Nov 10 4:51 AM — Nov 25 4:51 AM, Avalon (Santa Catalina Island), Weather by CustomWeather, © 2015

Note: Actual official high and low records may vary slightly from our data, if they occured in-between our weather recording intervals... More about our weather records


Avalon (Santa Catalina Island) weather history for previous 24 hours

Time TempWeatherWind HumidityBarometerVisibility
4:51 AM
Wed, Nov 25
48 °FPassing clouds.17 mph74%29.86 "Hg10 mi
3:51 AM48 °FPassing clouds.21 mph71%29.86 "Hg10 mi
2:51 AM49 °FOvercast.22 mph77%29.87 "Hg10 mi
1:51 AM50 °FMostly cloudy.16 mph89%29.88 "Hg10 mi
12:51 AM53 °FLight rain. Fog.13 mph96%29.87 "Hg1 mi
11:51 PM
Tue, Nov 24
53 °FFog.21 mph96%29.88 "Hg5 mi
10:51 PM53 °FMostly cloudy.14 mph93%29.90 "Hg10 mi
9:51 PM53 °FPartly cloudy.16 mph89%29.90 "Hg10 mi
8:51 PM53 °FPassing clouds.12 mph83%29.91 "Hg10 mi
7:51 PM53 °FPassing clouds.13 mph83%29.91 "Hg10 mi
6:51 PM53 °FPassing clouds.13 mph83%29.91 "Hg10 mi
5:51 PM53 °FOvercast.18 mph83%29.89 "Hg10 mi
4:51 PM52 °FPassing clouds.16 mph80%29.88 "Hg10 mi
3:51 PM53 °FPartly sunny.18 mph80%29.91 "Hg10 mi
2:51 PM54 °FLow clouds.14 mph83%29.90 "Hg10 mi
2:02 PM56 °FScattered clouds.13 mph77%29.93 "Hg10 mi
12:51 PM56 °FLow clouds.13 mph84%29.92 "Hg10 mi
11:51 AM57 °FPartly sunny.13 mph81%29.94 "Hg10 mi
10:51 AM58 °FSunny.13 mph75%29.96 "Hg10 mi
9:51 AM59 °FSunny.5 mph75%29.96 "Hg10 mi
8:51 AM53 °FPassing clouds.7 mph96%29.97 "Hg10 mi
7:57 AM53 °FScattered clouds.6 mph100%29.98 "Hg9 mi
6:51 AM51 °FFog.7 mph96%29.95 "Hg0 mi
Weather by CustomWeather, © 2015

See weather overviewHow to use our weather pages